User: anonymous   Login
Location: Unspecified
(0.0000°N, 0.0000°E)
Time: 07:30:42
(UTC+00:00)
Language:

Intasat - Orbit

View from above orbital plane
View from above orbital plane
View from above satellite
View from above satellite

Ground track
Ground track

The orbit data is extracted from the following two-line orbital elements,

1  7531U 74089C   18262.85113602 -.00000051 +00000-0 -39182-4 0  9994
2  7531 101.6983 228.9477 0011085 160.1260 229.3068 12.53494142006029
Epoch (UTC): 19 September 2018 20:25:38
Eccentricity: 0.0011085
inclination: 101.6983°
perigee height: 1441 km
apogee height: 1458 km
right ascension of ascending node: 228.9477°
argument of perigee: 160.1260°
revolutions per day: 12.53494142
mean anomaly at epoch: 229.3068°
orbit number at epoch: 602

The dashed part of the orbit path shows where the satellite is in the earth's shadow,  

DLR